Location: Hemaruka
(51.7801°N, 111.0917°W)
Time: 09:12:10
(UTC+00:00)

NOAA 15 - Pass Details

Date: 11 December 2023
Orbit: 797 x 810 km, 98.6° (Epoch: 02 March)

Event Time Altitude Azimuth Distance (km) Brightness Sun altitude
Rises 03:25:54 0° 206° (SSW) 3,315 8.0 -37.6°
Reaches altitude 10° 03:28:50 10° 223° (SW) 2,387 7.3 -38.0°
Maximum altitude 03:32:43 21° 270° (W) 1,765 6.9 -38.6°
Drops below altitude 10° 03:36:37 10° 318° (NW) 2,394 7.5 -39.2°
Sets 03:39:34 0° 335° (NNW) 3,328 8.2 -39.6°
